Baker Lake,

2:39 PM CST on January 21, 2018 (GMT -0600)
Baker Lake

Weather History for CYBK - January, 2013

Change the Weather History Date:

Wednesday, January 16, 2013

  Actual Average Record
Temperature  
Mean Temperature -32 °F -  
Max Temperature -20 °F -20 °F 5 °F (1999)
Min Temperature -45 °F -32 °F -45 °F (2004)
Degree Days  
Heating Degree Days 98    
Moisture  
Dew Point -36 °F    
Average Humidity 63    
Maximum Humidity 69    
Minimum Humidity 46    
Precipitation  
Precipitation 0.00 in 0.01 in - ()
Sea Level Pressure  
Sea Level Pressure 29.67 in    
Wind  
Wind Speed 22 mph ()    
Max Wind Speed 34 mph    
Max Gust Speed 43 mph    
Visibility 2.2 miles    
Events Snow    
Averages and records for this station are not official NWS values.
T = Trace of Precipitation, MM = Missing Value Source: Averaged Metar Reports

Daily Weather History Graph

Daily Weather History Graph

Search for Another Location

Airport or City:

Trip Planner

Search our weather history database for the weather conditions in past years. The results will help you decide how hot, cold, wet, or windy it might be!

Date:

Astronomy

Jan. 16, 2013 Rise Set
Actual Time 9:49 AM CST 3:19 PM CST
Civil Twilight 8:42 AM CST 4:26 PM CST
Nautical Twilight 7:38 AM CST 5:30 PM CST
Astronomical Twilight 6:40 AM CST 6:28 PM CST
Moon 10:02 AM CST (1/16) 11:50 PM CST (1/16)
Length of Visible Light 7h 43m
Length of Day
5h 29m
Waxing Crescent, 28% of the Moon is Illuminated
Jan 16
Waxing Crescent
Jan 18
First Quarter
Jan 26
Full
Feb 3
Last Quarter
Feb 10
New

Hourly Weather History & Observations

Time (CST) Temp. Windchill Dew Point Humidity Pressure Visibility Wind Dir Wind Speed Gust Speed Precip Events Conditions
12:00 AM -39 °F - -46 °F 51% 29.73 in 4 mi NW 23.0 mph - - Snow Snow
12:00 AM -38.2 °F -72.6 °F -45.4 °F 67% 29.73 in 4.0 mi NW 20.7 mph 26.5 mph N/A Snow Ice Crystals
1:00 AM -36.4 °F -69.4 °F -45.4 °F 61% 29.72 in 10.0 mi NW 19.6 mph 27.6 mph N/A Snow Low Drifting Snow
2:00 AM -36.4 °F -70.9 °F -43.6 °F 67% 29.73 in 8.0 mi NW 21.9 mph 28.8 mph N/A Snow Low Drifting Snow
2:46 AM - - - N/A% - 2.0 mi NW 25.3 mph 32.2 mph N/A   Ice Crystals
3:00 AM -34.6 °F -71.1 °F -41.8 °F 68% 29.69 in 2.0 mi NW 26.5 mph 33.4 mph N/A Snow Ice Crystals
4:00 AM -32.8 °F -66.2 °F -41.8 °F 62% 29.70 in 1.8 mi NW 21.9 mph 29.9 mph N/A Snow Ice Crystals
5:00 AM -31.0 °F -65.1 °F -40.0 °F 62% 29.69 in 1.8 mi NNW 24.2 mph 31.1 mph N/A Snow Ice Crystals
6:00 AM -31 °F - -39 °F 48% 29.67 in 2 mi NW 31.1 mph - - Snow Snow
6:00 AM -31.0 °F -65.1 °F -38.2 °F 68% 29.67 in 1.8 mi NW 24.2 mph 31.1 mph N/A Snow Ice Crystals
7:00 AM -29.2 °F -60.7 °F -38.2 °F 62% 29.68 in 1.8 mi NW 20.7 mph 28.8 mph N/A Snow Ice Crystals
8:00 AM -29.2 °F -59.3 °F -36.4 °F 68% 29.68 in 3.0 mi NW 18.4 mph 24.2 mph N/A Snow Ice Crystals
9:00 AM -27.4 °F -59.0 °F -36.4 °F 62% 29.69 in 1.0 mi NW 21.9 mph - N/A Snow Ice Crystals
9:20 AM - - - N/A% - 0.5 mi NW 21.9 mph - N/A   Ice Crystals
10:00 AM -29.2 °F -62.7 °F -36.4 °F 68% 29.68 in 0.5 mi NW 24.2 mph - N/A Snow Ice Crystals
11:00 AM -27.4 °F -60.3 °F -36.4 °F 62% 29.67 in 0.5 mi NW 24.2 mph - N/A Snow Ice Crystals
12:00 PM -28 °F - -36 °F 46% 29.66 in 19 mi NW 24.2 mph - - Snow Snow
12:00 PM -29.2 °F -62.7 °F -36.4 °F 68% 29.66 in 0.5 mi NW 24.2 mph - N/A Snow Ice Crystals
1:00 PM -27.4 °F -60.3 °F -34.6 °F 69% 29.66 in 0.4 mi WNW 24.2 mph - N/A Snow Ice Crystals
2:00 PM -27.4 °F -60.9 °F -34.6 °F 69% 29.65 in 0.4 mi NNW 25.3 mph - N/A Snow Ice Crystals
2:43 PM - - - N/A% - 0.2 mi NW 27.6 mph - N/A   Heavy Ice Crystals
3:00 PM -27.4 °F -63.0 °F -36.4 °F 62% 29.65 in 0.2 mi NW 29.9 mph - N/A Snow Heavy Ice Crystals
4:00 PM -27.4 °F -60.9 °F -34.6 °F 69% 29.65 in 0.2 mi NW 25.3 mph - N/A Snow Heavy Ice Crystals
5:00 PM -25.6 °F -55.3 °F -32.8 °F 69% 29.65 in 0.5 mi NW 19.6 mph 26.5 mph N/A Snow Ice Crystals
6:00 PM -23 °F - -31 °F 50% 29.63 in 0 mi NNW 34.5 mph - - Snow Snow
6:00 PM -23.8 °F -58.6 °F -31.0 °F 69% 29.63 in 0.4 mi NNW 31.1 mph 36.8 mph N/A Snow Ice Crystals
7:00 PM -22.0 °F -52.5 °F -29.2 °F 69% 29.65 in 0.5 mi NW 23.0 mph 28.8 mph N/A Snow Ice Crystals
8:00 PM -20.2 °F -51.2 °F -29.2 °F 63% 29.62 in 0.4 mi NW 25.3 mph 31.1 mph N/A Snow Ice Crystals
9:00 PM -20.2 °F -52.8 °F -29.2 °F 63% 29.62 in 0.2 mi NNW 28.8 mph 34.5 mph N/A Snow Heavy Ice Crystals
10:00 PM -20.2 °F -52.8 °F -29.2 °F 63% 29.62 in 0.2 mi NNW 28.8 mph 36.8 mph N/A Snow Heavy Ice Crystals
11:00 PM -20.2 °F -55.0 °F -27.4 °F 69% 29.61 in 0.2 mi NNW 34.5 mph 42.6 mph N/A Snow Heavy Ice Crystals